{"data":{"norad_id":65510,"intl_designator":"2025-198U","name":"STARLINK-35122","alt_names":[],"object_type":"PAYLOAD","status":"ACTIVE","operator":null,"country":"US","launch_date":"2025-09-05","launch_site_code":"AFETR","launch_vehicle":null,"mission":null,"orbit_class":"UNKNOWN","rcs_meters":null,"size_class":null,"mass_kg":null,"dimensions":null,"purposes":["comms"],"wikipedia_slug":null,"has_3d_model":false,"image_url":null,"decayed_at":null,"tle_current":{"epoch":"2026-05-24T18:39:27.340128Z","epoch_age_seconds":97801,"freshness":"FRESH","line1":"1 65510U 25198U   26144.77739977  .00020993  00000+0  63058-3 0  9992","line2":"2 65510  53.1592 276.5733 0001024  77.7327 282.3790 15.34406465 40280","mean_motion":15.34406465,"eccentricity":0.0001024,"inclination_deg":53.1592,"raan_deg":276.5733,"arg_perigee_deg":77.7327,"mean_anomaly_deg":282.379,"bstar":0.00063058,"rev_number":4028,"period_min":93.847362667362,"perigee_km":461.98352485918,"apogee_km":463.38452500509,"semimajor_km":6840.8210249321,"source":"CELESTRAK","updated_at":"2026-05-25T13:38:20.843530Z"}}}